Location: Seasalter
(51.3333°N, 1.0167°E)
Time: 04:50:07
(UTC+00:00)

Cosmos 1833 Rocket - Pass Details

Date: 26 September 2023
Orbit: 830 x 841 km, 71.0° (Epoch: 29 November)

Event Time Altitude Azimuth Distance (km) Brightness Sun altitude
Exits shadow 01:19:08 35° 40° (NE) 1,335 4.1 -36.2°
Drops below altitude 10° 01:22:17 10° 33° (NNE) 2,451 5.9 -35.9°
Sets 01:24:44 0° 32° (NNE) 3,390 6.9 -35.7°
